owner,sensor,date,latitude,longitude,vertical_datum,wind_speed,wind_to_direction,wind_speed_of_gust,qcFlag 
NDBC,ioos:station:NOAA.NDBC:PTAT2:1,2016-12-01T00:00:00Z,27.8260,-97.0510,14.9,5.1,30.0,5.7,'1111122,1111122,1111122' 
NDBC,ioos:station:NOAA.NDBC:PTAT2:1,2016-12-01T01:00:00Z,27.8260,-97.0510,14.9,6.2,30.0,6.7,'1111122,1111122,1111122' 
NDBC,ioos:station:NOAA.NDBC:PTAT2:1,2016-12-01T02:00:00Z,27.8260,-97.0510,14.9,7.2,30.0,7.7,'1111122,1111122,1111122' 
NDBC,ioos:station:NOAA.NDBC:PTAT2:1,2016-12-01T03:00:00Z,27.8260,-97.0510,14.9,6.7,10.0,7.7,'1111122,1111122,1111122' 
NDBC,ioos:station:NOAA.NDBC:PTAT2:1,2016-12-01T04:00:00Z,27.8260,-97.0510,14.9,7.7,20.0,9.8,'1111122,1111122,1111122' 
NDBC,ioos:station:NOAA.NDBC:PTAT2:1,2016-12-01T05:00:00Z,27.8260,-97.0510,14.9,8.2,30.0,9.8,'1111122,1111122,1111122' 
NDBC,ioos:station:NOAA.NDBC:PTAT2:1,2016-12-01T06:00:00Z,27.8260,-97.0510,14.9,7.7,30.0,9.3,'1111122,1111122,1111122' 
NDBC,ioos:station:NOAA.NDBC:PTAT2:1,2016-12-01T07:00:00Z,27.8260,-97.0510,14.9,8.2,30.0,9.3,'1111122,1111122,1111122' 
NDBC,ioos:station:NOAA.NDBC:PTAT2:1,2016-12-01T08:00:00Z,27.8260,-97.0510,14.9,7.7,60.0,8.8,'1111122,1111122,1111122' 
NDBC,ioos:station:NOAA.NDBC:PTAT2:1,2016-12-01T09:00:00Z,27.8260,-97.0510,14.9,7.7,50.0,8.2,'1111122,1111122,1111122' 
NDBC,ioos:station:NOAA.NDBC:PTAT2:1,2016-12-01T10:00:00Z,27.8260,-97.0510,14.9,8.2,60.0,8.8,'1111122,1111122,1111122' 
NDBC,ioos:station:NOAA.NDBC:PTAT2:1,2016-12-01T11:00:00Z,27.8260,-97.0510,14.9,7.7,60.0,9.3,'1111122,1111122,1111122' 
NDBC,ioos:station:NOAA.NDBC:PTAT2:1,2016-12-01T12:00:00Z,27.8260,-97.0510,14.9,8.8,70.0,9.3,'1111122,1111122,1111122' 
NDBC,ioos:station:NOAA.NDBC:PTAT2:1,2016-12-01T13:00:00Z,27.8260,-97.0510,14.9,8.2,70.0,9.3,'1111122,1111122,1111122' 
NDBC,ioos:station:NOAA.NDBC:PTAT2:1,2016-12-01T14:00:00Z,27.8260,-97.0510,14.9,9.3,70.0,11.8,'1111122,1111122,1111122' 
NDBC,ioos:station:NOAA.NDBC:PTAT2:1,2016-12-01T15:00:00Z,27.8260,-97.0510,14.9,8.8,70.0,9.8,'1111122,1111122,1111122' 
NDBC,ioos:station:NOAA.NDBC:PTAT2:1,2016-12-01T16:00:00Z,27.8260,-97.0510,14.9,8.8,90.0,9.8,'1111122,1111122,1111122' 
NDBC,ioos:station:NOAA.NDBC:PTAT2:1,2016-12-01T17:00:00Z,27.8260,-97.0510,14.9,7.7,80.0,8.2,'1111122,1111122,1111122' 
NDBC,ioos:station:NOAA.NDBC:PTAT2:1,2016-12-01T19:00:00Z,27.8260,-97.0510,14.9,6.7,90.0,7.2,'1111122,1111122,1111122' 
NDBC,ioos:station:NOAA.NDBC:PTAT2:1,2016-12-01T20:00:00Z,27.8260,-97.0510,14.9,7.7,100.0,8.2,'1111122,1111122,1111122' 
NDBC,ioos:station:NOAA.NDBC:PTAT2:1,2016-12-01T21:00:00Z,27.8260,-97.0510,14.9,7.7,90.0,8.8,'1111122,1111122,1111122' 
NDBC,ioos:station:NOAA.NDBC:PTAT2:1,2016-12-01T22:00:00Z,27.8260,-97.0510,14.9,7.2,90.0,8.2,'1111122,1111122,1111122' 
NDBC,ioos:station:NOAA.NDBC:PTAT2:1,2016-12-01T23:00:00Z,27.8260,-97.0510,14.9,8.2,90.0,9.3,'1111122,1111122,1111122' 
NDBC,ioos:station:NOAA.NDBC:PTAT2:1,2016-12-02T00:00:00Z,27.8260,-97.0510,14.9,8.8,90.0,10.3,'1111122,1111122,1111122' 
NDBC,ioos:station:NOAA.NDBC:PTAT2:1,2016-12-02T01:00:00Z,27.8260,-97.0510,14.9,9.3,100.0,10.8,'1111122,1111122,1111122' 
NDBC,ioos:station:NOAA.NDBC:PTAT2:1,2016-12-02T02:00:00Z,27.8260,-97.0510,14.9,10.3,90.0,11.3,'1111122,1111122,1111122' 
NDBC,ioos:station:NOAA.NDBC:PTAT2:1,2016-12-02T03:00:00Z,27.8260,-97.0510,14.9,8.2,90.0,9.3,'1111122,1111122,1111122' 
NDBC,ioos:station:NOAA.NDBC:PTAT2:1,2016-12-02T04:00:00Z,27.8260,-97.0510,14.9,8.8,100.0,9.3,'1111122,1111122,1111122' 
NDBC,ioos:station:NOAA.NDBC:PTAT2:1,2016-12-02T05:00:00Z,27.8260,-97.0510,14.9,8.2,100.0,9.3,'1111122,1111122,1111122' 
NDBC,ioos:station:NOAA.NDBC:PTAT2:1,2016-12-02T06:00:00Z,27.8260,-97.0510,14.9,9.3,100.0,10.8,'1111122,1111122,1111122' 
NDBC,ioos:station:NOAA.NDBC:PTAT2:1,2016-12-02T07:00:00Z,27.8260,-97.0510,14.9,9.3,100.0,10.3,'1111122,1111122,1111122' 
NDBC,ioos:station:NOAA.NDBC:PTAT2:1,2016-12-02T08:00:00Z,27.8260,-97.0510,14.9,8.2,100.0,9.3,'1111122,1111122,1111122' 
NDBC,ioos:station:NOAA.NDBC:PTAT2:1,2016-12-02T09:00:00Z,27.8260,-97.0510,14.9,8.2,90.0,8.8,'1111122,1111122,1111122' 
NDBC,ioos:station:NOAA.NDBC:PTAT2:1,2016-12-02T10:00:00Z,27.8260,-97.0510,14.9,6.7,90.0,7.7,'1111122,1111122,1111122' 
NDBC,ioos:station:NOAA.NDBC:PTAT2:1,2016-12-02T11:00:00Z,27.8260,-97.0510,14.9,6.2,70.0,6.7,'1111122,1111122,1111122' 
NDBC,ioos:station:NOAA.NDBC:PTAT2:1,2016-12-02T12:00:00Z,27.8260,-97.0510,14.9,7.2,70.0,8.2,'1111122,1111122,1111122' 
NDBC,ioos:station:NOAA.NDBC:PTAT2:1,2016-12-02T13:00:00Z,27.8260,-97.0510,14.9,7.2,70.0,8.2,'1111122,1111122,1111122' 
NDBC,ioos:station:NOAA.NDBC:PTAT2:1,2016-12-02T14:00:00Z,27.8260,-97.0510,14.9,8.2,70.0,9.3,'1111122,1111122,1111122' 
NDBC,ioos:station:NOAA.NDBC:PTAT2:1,2016-12-02T15:00:00Z,27.8260,-97.0510,14.9,7.7,70.0,8.2,'1111122,1111122,1111122' 
NDBC,ioos:station:NOAA.NDBC:PTAT2:1,2016-12-02T16:00:00Z,27.8260,-97.0510,14.9,9.3,80.0,10.3,'1111122,1111122,1111122' 
NDBC,ioos:station:NOAA.NDBC:PTAT2:1,2016-12-02T17:00:00Z,27.8260,-97.0510,14.9,10.3,70.0,10.8,'1111122,1111122,1111122' 
NDBC,ioos:station:NOAA.NDBC:PTAT2:1,2016-12-02T18:00:00Z,27.8260,-97.0510,14.9,8.2,60.0,9.3,'1111122,1111122,1111122' 
NDBC,ioos:station:NOAA.NDBC:PTAT2:1,2016-12-02T19:00:00Z,27.8260,-97.0510,14.9,8.8,70.0,9.8,'1111122,1111122,1111122' 
NDBC,ioos:station:NOAA.NDBC:PTAT2:1,2016-12-02T20:00:00Z,27.8260,-97.0510,14.9,9.3,60.0,10.8,'1111122,1111122,1111122' 
NDBC,ioos:station:NOAA.NDBC:PTAT2:1,2016-12-02T21:00:00Z,27.8260,-97.0510,14.9,10.8,60.0,11.8,'1111122,1111122,1111122' 
NDBC,ioos:station:NOAA.NDBC:PTAT2:1,2016-12-02T22:00:00Z,27.8260,-97.0510,14.9,11.8,60.0,12.9,'1111122,1111122,1111122' 
NDBC,ioos:station:NOAA.NDBC:PTAT2:1,2016-12-02T23:00:00Z,27.8260,-97.0510,14.9,13.4,60.0,15.4,'1111122,1111122,1111122' 
NDBC,ioos:station:NOAA.NDBC:PTAT2:1,2016-12-03T00:00:00Z,27.8260,-97.0510,14.9,11.8,50.0,13.9,'1111122,1111122,1111122' 
NDBC,ioos:station:NOAA.NDBC:PTAT2:1,2016-12-03T01:00:00Z,27.8260,-97.0510,14.9,12.4,50.0,13.9,'1111122,1111122,1111122' 
NDBC,ioos:station:NOAA.NDBC:PTAT2:1,2016-12-03T02:00:00Z,27.8260,-97.0510,14.9,11.8,50.0,12.9,'1111122,1111122,1111122' 
NDBC,ioos:station:NOAA.NDBC:PTAT2:1,2016-12-03T03:00:00Z,27.8260,-97.0510,14.9,11.3,50.0,12.4,'1111122,1111122,1111122' 
NDBC,ioos:station:NOAA.NDBC:PTAT2:1,2016-12-03T04:00:00Z,27.8260,-97.0510,14.9,10.8,50.0,11.8,'1111122,1111122,1111122' 
NDBC,ioos:station:NOAA.NDBC:PTAT2:1,2016-12-03T05:00:00Z,27.8260,-97.0510,14.9,9.8,40.0,10.8,'1111122,1111122,1111122' 
NDBC,ioos:station:NOAA.NDBC:PTAT2:1,2016-12-03T06:00:00Z,27.8260,-97.0510,14.9,8.8,30.0,9.8,'1111122,1111122,1111122' 
NDBC,ioos:station:NOAA.NDBC:PTAT2:1,2016-12-03T07:00:00Z,27.8260,-97.0510,14.9,3.6,330.0,4.6,'1111122,1111122,1111122' 
NDBC,ioos:station:NOAA.NDBC:PTAT2:1,2016-12-03T08:00:00Z,27.8260,-97.0510,14.9,5.1,360.0,6.2,'1111122,1111122,1111122' 
NDBC,ioos:station:NOAA.NDBC:PTAT2:1,2016-12-03T09:00:00Z,27.8260,-97.0510,14.9,5.1,360.0,5.7,'1111122,1111122,1111122' 
NDBC,ioos:station:NOAA.NDBC:PTAT2:1,2016-12-03T10:00:00Z,27.8260,-97.0510,14.9,5.1,360.0,6.2,'1111122,1111122,1111122' 
NDBC,ioos:station:NOAA.NDBC:PTAT2:1,2016-12-03T11:00:00Z,27.8260,-97.0510,14.9,5.1,10.0,5.7,'1111122,1111122,1111122' 
NDBC,ioos:station:NOAA.NDBC:PTAT2:1,2016-12-03T12:00:00Z,27.8260,-97.0510,14.9,4.6,360.0,5.1,'1111122,1111122,1111122' 
NDBC,ioos:station:NOAA.NDBC:PTAT2:1,2016-12-03T13:00:00Z,27.8260,-97.0510,14.9,4.1,340.0,5.1,'1111122,1111122,1111122' 
NDBC,ioos:station:NOAA.NDBC:PTAT2:1,2016-12-03T14:00:00Z,27.8260,-97.0510,14.9,4.1,350.0,5.1,'1111122,1111122,1111122' 
NDBC,ioos:station:NOAA.NDBC:PTAT2:1,2016-12-03T15:00:00Z,27.8260,-97.0510,14.9,6.2,360.0,7.7,'1111122,1111122,1111122' 
NDBC,ioos:station:NOAA.NDBC:PTAT2:1,2016-12-03T16:00:00Z,27.8260,-97.0510,14.9,7.2,360.0,7.7,'1111122,1111122,1111122' 
NDBC,ioos:station:NOAA.NDBC:PTAT2:1,2016-12-03T17:00:00Z,27.8260,-97.0510,14.9,7.2,350.0,8.8,'1111122,1111122,1111122' 
NDBC,ioos:station:NOAA.NDBC:PTAT2:1,2016-12-03T18:00:00Z,27.8260,-97.0510,14.9,6.7,350.0,7.2,'1111122,1111122,1111122' 
NDBC,ioos:station:NOAA.NDBC:PTAT2:1,2016-12-03T19:00:00Z,27.8260,-97.0510,14.9,9.3,360.0,10.3,'1111122,1111122,1111122' 
NDBC,ioos:station:NOAA.NDBC:PTAT2:1,2016-12-03T20:00:00Z,27.8260,-97.0510,14.9,7.7,10.0,9.3,'1111122,1111122,1111122' 
NDBC,ioos:station:NOAA.NDBC:PTAT2:1,2016-12-03T21:00:00Z,27.8260,-97.0510,14.9,10.3,10.0,10.8,'1111122,1111122,1111122' 
NDBC,ioos:station:NOAA.NDBC:PTAT2:1,2016-12-03T22:00:00Z,27.8260,-97.0510,14.9,8.8,10.0,9.8,'1111122,1111122,1111122' 
NDBC,ioos:station:NOAA.NDBC:PTAT2:1,2016-12-03T23:00:00Z,27.8260,-97.0510,14.9,7.7,360.0,10.3,'1111122,1111122,1111122' 
NDBC,ioos:station:NOAA.NDBC:PTAT2:1,2016-12-04T00:00:00Z,27.8260,-97.0510,14.9,9.3,360.0,11.3,'1111122,1111122,1111122' 
NDBC,ioos:station:NOAA.NDBC:PTAT2:1,2016-12-04T01:00:00Z,27.8260,-97.0510,14.9,7.2,350.0,9.3,'1111122,1111122,1111122' 
NDBC,ioos:station:NOAA.NDBC:PTAT2:1,2016-12-04T02:00:00Z,27.8260,-97.0510,14.9,8.2,360.0,8.8,'1111122,1111122,1111122' 
NDBC,ioos:station:NOAA.NDBC:PTAT2:1,2016-12-04T03:00:00Z,27.8260,-97.0510,14.9,7.7,30.0,8.8,'1111122,1111122,1111122' 
NDBC,ioos:station:NOAA.NDBC:PTAT2:1,2016-12-04T04:00:00Z,27.8260,-97.0510,14.9,6.2,320.0,7.2,'1111122,1111122,1111122' 
NDBC,ioos:station:NOAA.NDBC:PTAT2:1,2016-12-04T05:00:00Z,27.8260,-97.0510,14.9,7.7,70.0,8.2,'1111122,1111122,1111122' 
NDBC,ioos:station:NOAA.NDBC:PTAT2:1,2016-12-04T06:00:00Z,27.8260,-97.0510,14.9,8.2,80.0,9.3,'1111122,1111122,1111122' 
NDBC,ioos:station:NOAA.NDBC:PTAT2:1,2016-12-04T07:00:00Z,27.8260,-97.0510,14.9,9.3,50.0,10.8,'1111122,1111122,1111122' 
NDBC,ioos:station:NOAA.NDBC:PTAT2:1,2016-12-04T08:00:00Z,27.8260,-97.0510,14.9,7.7,30.0,8.2,'1111122,1111122,1111122' 
NDBC,ioos:station:NOAA.NDBC:PTAT2:1,2016-12-04T09:00:00Z,27.8260,-97.0510,14.9,9.3,340.0,10.8,'1111122,1111122,1111122' 
NDBC,ioos:station:NOAA.NDBC:PTAT2:1,2016-12-04T10:00:00Z,27.8260,-97.0510,14.9,7.7,360.0,9.3,'1111122,1111122,1111122' 
NDBC,ioos:station:NOAA.NDBC:PTAT2:1,2016-12-04T11:00:00Z,27.8260,-97.0510,14.9,9.3,340.0,10.3,'1111122,1111122,1111122' 
NDBC,ioos:station:NOAA.NDBC:PTAT2:1,2016-12-04T12:00:00Z,27.8260,-97.0510,14.9,10.3,10.0,11.8,'1111122,1111122,1111122' 
NDBC,ioos:station:NOAA.NDBC:PTAT2:1,2016-12-04T13:00:00Z,27.8260,-97.0510,14.9,11.8,20.0,12.9,'1111122,1111122,1111122' 
NDBC,ioos:station:NOAA.NDBC:PTAT2:1,2016-12-04T14:00:00Z,27.8260,-97.0510,14.9,9.8,10.0,10.8,'1111122,1111122,1111122' 
NDBC,ioos:station:NOAA.NDBC:PTAT2:1,2016-12-04T15:00:00Z,27.8260,-97.0510,14.9,8.8,360.0,10.3,'1111122,1111122,1111122' 
NDBC,ioos:station:NOAA.NDBC:PTAT2:1,2016-12-04T16:00:00Z,27.8260,-97.0510,14.9,7.7,10.0,9.8,'1111122,1111122,1111122' 
NDBC,ioos:station:NOAA.NDBC:PTAT2:1,2016-12-04T17:00:00Z,27.8260,-97.0510,14.9,10.3,360.0,11.3,'1111122,1111122,1111122' 
NDBC,ioos:station:NOAA.NDBC:PTAT2:1,2016-12-04T18:00:00Z,27.8260,-97.0510,14.9,11.3,360.0,12.4,'1111122,1111122,1111122' 
NDBC,ioos:station:NOAA.NDBC:PTAT2:1,2016-12-04T19:00:00Z,27.8260,-97.0510,14.9,10.8,360.0,12.4,'1111122,1111122,1111122' 
NDBC,ioos:station:NOAA.NDBC:PTAT2:1,2016-12-04T20:00:00Z,27.8260,-97.0510,14.9,9.8,360.0,11.8,'1111122,1111122,1111122' 
NDBC,ioos:station:NOAA.NDBC:PTAT2:1,2016-12-04T21:00:00Z,27.8260,-97.0510,14.9,11.3,10.0,12.9,'1111122,1111122,1111122' 
NDBC,ioos:station:NOAA.NDBC:PTAT2:1,2016-12-04T22:00:00Z,27.8260,-97.0510,14.9,10.3,10.0,11.8,'1111122,1111122,1111122' 
NDBC,ioos:station:NOAA.NDBC:PTAT2:1,2016-12-04T23:00:00Z,27.8260,-97.0510,14.9,9.8,20.0,10.8,'1111122,1111122,1111122' 
NDBC,ioos:station:NOAA.NDBC:PTAT2:1,2016-12-05T00:00:00Z,27.8260,-97.0510,14.9,9.8,20.0,11.8,'1111122,1111122,1111122' 
NDBC,ioos:station:NOAA.NDBC:PTAT2:1,2016-12-05T01:00:00Z,27.8260,-97.0510,14.9,10.3,10.0,11.8,'1111122,1111122,1111122' 
NDBC,ioos:station:NOAA.NDBC:PTAT2:1,2016-12-05T02:00:00Z,27.8260,-97.0510,14.9,10.3,10.0,11.3,'1111122,1111122,1111122' 
NDBC,ioos:station:NOAA.NDBC:PTAT2:1,2016-12-05T03:00:00Z,27.8260,-97.0510,14.9,8.2,360.0,9.8,'1111122,1111122,1111122' 
NDBC,ioos:station:NOAA.NDBC:PTAT2:1,2016-12-05T04:00:00Z,27.8260,-97.0510,14.9,8.8,360.0,10.3,'1111122,1111122,1111122' 
NDBC,ioos:station:NOAA.NDBC:PTAT2:1,2016-12-05T05:00:00Z,27.8260,-97.0510,14.9,11.3,10.0,12.9,'1111122,1111122,1111122' 
NDBC,ioos:station:NOAA.NDBC:PTAT2:1,2016-12-05T06:00:00Z,27.8260,-97.0510,14.9,9.3,10.0,11.3,'1111122,1111122,1111122' 
NDBC,ioos:station:NOAA.NDBC:PTAT2:1,2016-12-05T07:00:00Z,27.8260,-97.0510,14.9,9.8,360.0,11.8,'1111122,1111122,1111122' 
NDBC,ioos:station:NOAA.NDBC:PTAT2:1,2016-12-05T08:00:00Z,27.8260,-97.0510,14.9,9.3,360.0,12.4,'1111122,1111122,1111122' 
NDBC,ioos:station:NOAA.NDBC:PTAT2:1,2016-12-05T09:00:00Z,27.8260,-97.0510,14.9,8.2,360.0,9.3,'1111122,1111122,1111122' 
NDBC,ioos:station:NOAA.NDBC:PTAT2:1,2016-12-05T10:00:00Z,27.8260,-97.0510,14.9,5.1,340.0,6.7,'1111122,1111122,1111122' 
NDBC,ioos:station:NOAA.NDBC:PTAT2:1,2016-12-05T11:00:00Z,27.8260,-97.0510,14.9,4.6,330.0,5.7,'1111122,1111122,1111122' 
NDBC,ioos:station:NOAA.NDBC:PTAT2:1,2016-12-05T12:00:00Z,27.8260,-97.0510,14.9,5.1,310.0,6.2,'1111122,1111122,1111122' 
NDBC,ioos:station:NOAA.NDBC:PTAT2:1,2016-12-05T13:00:00Z,27.8260,-97.0510,14.9,5.7,290.0,6.7,'1111122,1111122,1111122' 
NDBC,ioos:station:NOAA.NDBC:PTAT2:1,2016-12-05T14:00:00Z,27.8260,-97.0510,14.9,7.2,310.0,8.2,'1111122,1111122,1111122' 
NDBC,ioos:station:NOAA.NDBC:PTAT2:1,2016-12-05T15:00:00Z,27.8260,-97.0510,14.9,6.2,300.0,8.2,'1111122,1111122,1111122' 
NDBC,ioos:station:NOAA.NDBC:PTAT2:1,2016-12-05T16:00:00Z,27.8260,-97.0510,14.9,6.7,310.0,8.2,'1111122,1111122,1111122' 
NDBC,ioos:station:NOAA.NDBC:PTAT2:1,2016-12-05T22:00:00Z,27.8260,-97.0510,14.9,4.6,290.0,5.7,'1111122,1111122,1111122' 
NDBC,ioos:station:NOAA.NDBC:PTAT2:1,2016-12-05T23:00:00Z,27.8260,-97.0510,14.9,3.1,290.0,4.1,'1111122,1111122,1111122' 
NDBC,ioos:station:NOAA.NDBC:PTAT2:1,2016-12-06T00:00:00Z,27.8260,-97.0510,14.9,2.6,300.0,3.6,'1111122,1111122,1111122' 
NDBC,ioos:station:NOAA.NDBC:PTAT2:1,2016-12-06T01:00:00Z,27.8260,-97.0510,14.9,1.5,300.0,2.1,'1111122,1111122,1111122' 
NDBC,ioos:station:NOAA.NDBC:PTAT2:1,2016-12-06T02:00:00Z,27.8260,-97.0510,14.9,1.5,230.0,2.1,'1111122,1111122,1111122' 
NDBC,ioos:station:NOAA.NDBC:PTAT2:1,2016-12-06T03:00:00Z,27.8260,-97.0510,14.9,1.5,220.0,1.5,'1111122,1111122,1111122' 
NDBC,ioos:station:NOAA.NDBC:PTAT2:1,2016-12-06T04:00:00Z,27.8260,-97.0510,14.9,3.1,220.0,3.6,'1111122,1111122,1111122' 
NDBC,ioos:station:NOAA.NDBC:PTAT2:1,2016-12-06T05:00:00Z,27.8260,-97.0510,14.9,4.1,220.0,4.6,'1111122,1111122,1111122' 
NDBC,ioos:station:NOAA.NDBC:PTAT2:1,2016-12-06T06:00:00Z,27.8260,-97.0510,14.9,5.7,220.0,6.2,'1111122,1111122,1111122' 
NDBC,ioos:station:NOAA.NDBC:PTAT2:1,2016-12-06T07:00:00Z,27.8260,-97.0510,14.9,5.1,220.0,5.7,'1111122,1111122,1111122' 
NDBC,ioos:station:NOAA.NDBC:PTAT2:1,2016-12-06T08:00:00Z,27.8260,-97.0510,14.9,5.7,220.0,7.2,'1111122,1111122,1111122' 
NDBC,ioos:station:NOAA.NDBC:PTAT2:1,2016-12-06T09:00:00Z,27.8260,-97.0510,14.9,4.1,240.0,4.6,'1111122,1111122,1111122' 
NDBC,ioos:station:NOAA.NDBC:PTAT2:1,2016-12-06T10:00:00Z,27.8260,-97.0510,14.9,3.6,250.0,4.1,'1111122,1111122,1111122' 
NDBC,ioos:station:NOAA.NDBC:PTAT2:1,2016-12-06T11:00:00Z,27.8260,-97.0510,14.9,5.1,220.0,5.7,'1111122,1111122,1111122' 
NDBC,ioos:station:NOAA.NDBC:PTAT2:1,2016-12-06T12:00:00Z,27.8260,-97.0510,14.9,5.7,220.0,6.2,'1111122,1111122,1111122' 
NDBC,ioos:station:NOAA.NDBC:PTAT2:1,2016-12-06T13:00:00Z,27.8260,-97.0510,14.9,4.6,230.0,5.1,'1111122,1111122,1111122' 
NDBC,ioos:station:NOAA.NDBC:PTAT2:1,2016-12-06T14:00:00Z,27.8260,-97.0510,14.9,5.1,230.0,5.7,'1111122,1111122,1111122' 
NDBC,ioos:station:NOAA.NDBC:PTAT2:1,2016-12-06T15:00:00Z,27.8260,-97.0510,14.9,8.2,220.0,8.8,'1111122,1111122,1111122' 
NDBC,ioos:station:NOAA.NDBC:PTAT2:1,2016-12-06T16:00:00Z,27.8260,-97.0510,14.9,5.7,210.0,6.7,'1111122,1111122,1111122' 
NDBC,ioos:station:NOAA.NDBC:PTAT2:1,2016-12-06T17:00:00Z,27.8260,-97.0510,14.9,4.1,200.0,4.1,'1111122,1111122,1111122' 
NDBC,ioos:station:NOAA.NDBC:PTAT2:1,2016-12-06T18:00:00Z,27.8260,-97.0510,14.9,5.1,190.0,5.7,'1111122,1111122,1111122' 
NDBC,ioos:station:NOAA.NDBC:PTAT2:1,2016-12-06T20:00:00Z,27.8260,-97.0510,14.9,3.1,190.0,3.6,'1111122,1111122,1111122' 
NDBC,ioos:station:NOAA.NDBC:PTAT2:1,2016-12-06T21:00:00Z,27.8260,-97.0510,14.9,4.1,180.0,4.6,'1111122,1111122,1111122' 
NDBC,ioos:station:NOAA.NDBC:PTAT2:1,2016-12-06T22:00:00Z,27.8260,-97.0510,14.9,3.1,190.0,3.1,'1111122,1111122,1111122' 
NDBC,ioos:station:NOAA.NDBC:PTAT2:1,2016-12-06T23:00:00Z,27.8260,-97.0510,14.9,0.5,180.0,0.5,'1111122,1111122,1111122' 
NDBC,ioos:station:NOAA.NDBC:PTAT2:1,2016-12-07T00:00:00Z,27.8260,-97.0510,14.9,0.5,150.0,0.5,'1111122,1111122,1111122' 
NDBC,ioos:station:NOAA.NDBC:PTAT2:1,2016-12-07T03:00:00Z,27.8260,-97.0510,14.9,8.2,360.0,10.3,'1111122,1111122,1111122' 
NDBC,ioos:station:NOAA.NDBC:PTAT2:1,2016-12-07T04:00:00Z,27.8260,-97.0510,14.9,9.3,10.0,10.3,'1111122,1111122,1111122' 
NDBC,ioos:station:NOAA.NDBC:PTAT2:1,2016-12-07T05:00:00Z,27.8260,-97.0510,14.9,8.2,10.0,9.3,'1111122,1111122,1111122' 
NDBC,ioos:station:NOAA.NDBC:PTAT2:1,2016-12-07T06:00:00Z,27.8260,-97.0510,14.9,8.2,360.0,9.3,'1111122,1111122,1111122' 
NDBC,ioos:station:NOAA.NDBC:PTAT2:1,2016-12-07T07:00:00Z,27.8260,-97.0510,14.9,6.2,360.0,7.2,'1111122,1111122,1111122' 
NDBC,ioos:station:NOAA.NDBC:PTAT2:1,2016-12-07T08:00:00Z,27.8260,-97.0510,14.9,6.2,10.0,7.2,'1111122,1111122,1111122' 
NDBC,ioos:station:NOAA.NDBC:PTAT2:1,2016-12-07T09:00:00Z,27.8260,-97.0510,14.9,6.2,360.0,6.7,'1111122,1111122,1111122' 
NDBC,ioos:station:NOAA.NDBC:PTAT2:1,2016-12-07T10:00:00Z,27.8260,-97.0510,14.9,5.7,10.0,6.7,'1111122,1111122,1111122' 
NDBC,ioos:station:NOAA.NDBC:PTAT2:1,2016-12-07T11:00:00Z,27.8260,-97.0510,14.9,7.2,50.0,7.7,'1111122,1111122,1111122' 
NDBC,ioos:station:NOAA.NDBC:PTAT2:1,2016-12-07T12:00:00Z,27.8260,-97.0510,14.9,7.2,40.0,7.7,'1111122,1111122,1111122' 
NDBC,ioos:station:NOAA.NDBC:PTAT2:1,2016-12-07T13:00:00Z,27.8260,-97.0510,14.9,7.7,30.0,8.8,'1111122,1111122,1111122' 
NDBC,ioos:station:NOAA.NDBC:PTAT2:1,2016-12-07T14:00:00Z,27.8260,-97.0510,14.9,6.2,10.0,6.7,'1111122,1111122,1111122' 
NDBC,ioos:station:NOAA.NDBC:PTAT2:1,2016-12-07T15:00:00Z,27.8260,-97.0510,14.9,8.2,40.0,9.3,'1111122,1111122,1111122' 
NDBC,ioos:station:NOAA.NDBC:PTAT2:1,2016-12-07T16:00:00Z,27.8260,-97.0510,14.9,7.7,20.0,8.8,'1111122,1111122,1111122' 
NDBC,ioos:station:NOAA.NDBC:PTAT2:1,2016-12-07T17:00:00Z,27.8260,-97.0510,14.9,8.2,10.0,9.3,'1111122,1111122,1111122' 
NDBC,ioos:station:NOAA.NDBC:PTAT2:1,2016-12-07T18:00:00Z,27.8260,-97.0510,14.9,7.7,20.0,8.2,'1111122,1111122,1111122' 
NDBC,ioos:station:NOAA.NDBC:PTAT2:1,2016-12-07T19:00:00Z,27.8260,-97.0510,14.9,7.7,30.0,8.8,'1111122,1111122,1111122' 
NDBC,ioos:station:NOAA.NDBC:PTAT2:1,2016-12-07T20:00:00Z,27.8260,-97.0510,14.9,7.2,20.0,7.7,'1111122,1111122,1111122' 
NDBC,ioos:station:NOAA.NDBC:PTAT2:1,2016-12-07T21:00:00Z,27.8260,-97.0510,14.9,7.2,10.0,8.2,'1111122,1111122,1111122' 
NDBC,ioos:station:NOAA.NDBC:PTAT2:1,2016-12-07T22:00:00Z,27.8260,-97.0510,14.9,8.2,20.0,8.8,'1111122,1111122,1111122' 
NDBC,ioos:station:NOAA.NDBC:PTAT2:1,2016-12-07T23:00:00Z,27.8260,-97.0510,14.9,6.7,360.0,7.2,'1111122,1111122,1111122' 
NDBC,ioos:station:NOAA.NDBC:PTAT2:1,2016-12-08T00:00:00Z,27.8260,-97.0510,14.9,7.2,10.0,7.7,'1111122,1111122,1111122' 
NDBC,ioos:station:NOAA.NDBC:PTAT2:1,2016-12-08T01:00:00Z,27.8260,-97.0510,14.9,8.2,10.0,9.3,'1111122,1111122,1111122' 
NDBC,ioos:station:NOAA.NDBC:PTAT2:1,2016-12-08T02:00:00Z,27.8260,-97.0510,14.9,6.2,360.0,7.2,'1111122,1111122,1111122' 
NDBC,ioos:station:NOAA.NDBC:PTAT2:1,2016-12-08T04:00:00Z,27.8260,-97.0510,14.9,8.8,10.0,9.8,'1111122,1111122,1111122' 
NDBC,ioos:station:NOAA.NDBC:PTAT2:1,2016-12-08T05:00:00Z,27.8260,-97.0510,14.9,8.8,360.0,10.3,'1111122,1111122,1111122' 
NDBC,ioos:station:NOAA.NDBC:PTAT2:1,2016-12-08T06:00:00Z,27.8260,-97.0510,14.9,8.2,360.0,9.3,'1111122,1111122,1111122' 
NDBC,ioos:station:NOAA.NDBC:PTAT2:1,2016-12-08T08:00:00Z,27.8260,-97.0510,14.9,13.4,360.0,15.4,'1111122,1111122,1111122' 
NDBC,ioos:station:NOAA.NDBC:PTAT2:1,2016-12-08T09:00:00Z,27.8260,-97.0510,14.9,12.4,360.0,13.9,'1111122,1111122,1111122' 
NDBC,ioos:station:NOAA.NDBC:PTAT2:1,2016-12-08T10:00:00Z,27.8260,-97.0510,14.9,13.4,360.0,16.0,'1111122,1111122,1111122' 
NDBC,ioos:station:NOAA.NDBC:PTAT2:1,2016-12-08T11:00:00Z,27.8260,-97.0510,14.9,13.4,360.0,15.4,'1111122,1111122,1111122' 
NDBC,ioos:station:NOAA.NDBC:PTAT2:1,2016-12-08T12:00:00Z,27.8260,-97.0510,14.9,16.5,10.0,18.0,'1111122,1111122,1111122' 
NDBC,ioos:station:NOAA.NDBC:PTAT2:1,2016-12-08T13:00:00Z,27.8260,-97.0510,14.9,14.9,10.0,16.0,'1111122,1111122,1111122' 
NDBC,ioos:station:NOAA.NDBC:PTAT2:1,2016-12-08T14:00:00Z,27.8260,-97.0510,14.9,12.9,10.0,16.0,'1111122,1111122,1111122' 
NDBC,ioos:station:NOAA.NDBC:PTAT2:1,2016-12-08T15:00:00Z,27.8260,-97.0510,14.9,15.4,10.0,18.0,'1111122,1111122,1111122' 
NDBC,ioos:station:NOAA.NDBC:PTAT2:1,2016-12-08T16:00:00Z,27.8260,-97.0510,14.9,15.4,10.0,17.0,'1111122,1111122,1111122' 
NDBC,ioos:station:NOAA.NDBC:PTAT2:1,2016-12-08T17:00:00Z,27.8260,-97.0510,14.9,12.4,360.0,15.4,'1111122,1111122,1111122' 
NDBC,ioos:station:NOAA.NDBC:PTAT2:1,2016-12-08T18:00:00Z,27.8260,-97.0510,14.9,13.4,360.0,16.0,'1111122,1111122,1111122' 
NDBC,ioos:station:NOAA.NDBC:PTAT2:1,2016-12-08T19:00:00Z,27.8260,-97.0510,14.9,14.9,360.0,17.5,'1111122,1111122,1111122' 
NDBC,ioos:station:NOAA.NDBC:PTAT2:1,2016-12-08T20:00:00Z,27.8260,-97.0510,14.9,12.4,360.0,15.4,'1111122,1111122,1111122' 
NDBC,ioos:station:NOAA.NDBC:PTAT2:1,2016-12-08T21:00:00Z,27.8260,-97.0510,14.9,11.8,360.0,13.4,'1111122,1111122,1111122' 
NDBC,ioos:station:NOAA.NDBC:PTAT2:1,2016-12-08T22:00:00Z,27.8260,-97.0510,14.9,8.8,340.0,10.3,'1111122,1111122,1111122' 
NDBC,ioos:station:NOAA.NDBC:PTAT2:1,2016-12-08T23:00:00Z,27.8260,-97.0510,14.9,10.8,340.0,12.9,'1111122,1111122,1111122' 
NDBC,ioos:station:NOAA.NDBC:PTAT2:1,2016-12-09T00:00:00Z,27.8260,-97.0510,14.9,10.8,350.0,12.9,'1111122,1111122,1111122' 
NDBC,ioos:station:NOAA.NDBC:PTAT2:1,2016-12-09T01:00:00Z,27.8260,-97.0510,14.9,9.8,340.0,11.8,'1111122,1111122,1111122' 
NDBC,ioos:station:NOAA.NDBC:PTAT2:1,2016-12-09T02:00:00Z,27.8260,-97.0510,14.9,10.8,350.0,13.4,'1111122,1111122,1111122' 
NDBC,ioos:station:NOAA.NDBC:PTAT2:1,2016-12-09T03:00:00Z,27.8260,-97.0510,14.9,12.4,350.0,13.4,'1111122,1111122,1111122' 
NDBC,ioos:station:NOAA.NDBC:PTAT2:1,2016-12-09T04:00:00Z,27.8260,-97.0510,14.9,11.3,360.0,13.4,'1111122,1111122,1111122' 
NDBC,ioos:station:NOAA.NDBC:PTAT2:1,2016-12-09T05:00:00Z,27.8260,-97.0510,14.9,11.3,360.0,12.9,'1111122,1111122,1111122' 
NDBC,ioos:station:NOAA.NDBC:PTAT2:1,2016-12-09T06:00:00Z,27.8260,-97.0510,14.9,9.8,360.0,11.8,'1111122,1111122,1111122' 
NDBC,ioos:station:NOAA.NDBC:PTAT2:1,2016-12-09T07:00:00Z,27.8260,-97.0510,14.9,10.3,360.0,11.8,'1111122,1111122,1111122' 
NDBC,ioos:station:NOAA.NDBC:PTAT2:1,2016-12-09T09:00:00Z,27.8260,-97.0510,14.9,9.8,360.0,11.8,'1111122,1111122,1111122' 
NDBC,ioos:station:NOAA.NDBC:PTAT2:1,2016-12-09T10:00:00Z,27.8260,-97.0510,14.9,9.8,360.0,12.4,'1111122,1111122,1111122' 
NDBC,ioos:station:NOAA.NDBC:PTAT2:1,2016-12-09T11:00:00Z,27.8260,-97.0510,14.9,8.8,360.0,10.8,'1111122,1111122,1111122' 
NDBC,ioos:station:NOAA.NDBC:PTAT2:1,2016-12-09T12:00:00Z,27.8260,-97.0510,14.9,9.8,360.0,11.8,'1111122,1111122,1111122' 
NDBC,ioos:station:NOAA.NDBC:PTAT2:1,2016-12-09T13:00:00Z,27.8260,-97.0510,14.9,10.3,360.0,11.3,'1111122,1111122,1111122' 
NDBC,ioos:station:NOAA.NDBC:PTAT2:1,2016-12-09T14:00:00Z,27.8260,-97.0510,14.9,7.2,360.0,8.2,'1111122,1111122,1111122' 
NDBC,ioos:station:NOAA.NDBC:PTAT2:1,2016-12-09T15:00:00Z,27.8260,-97.0510,14.9,8.2,360.0,9.3,'1111122,1111122,1111122' 
NDBC,ioos:station:NOAA.NDBC:PTAT2:1,2016-12-09T16:00:00Z,27.8260,-97.0510,14.9,7.2,360.0,8.8,'1111122,1111122,1111122' 
NDBC,ioos:station:NOAA.NDBC:PTAT2:1,2016-12-09T17:00:00Z,27.8260,-97.0510,14.9,6.7,350.0,8.2,'1111122,1111122,1111122' 